Regional Weather Roundup
Issued by NWS Sioux Falls, SD

Home | Current Version | Previous Version | Text Only | Print | Product List | Glossary On
Versions: 1 2 3 4 5 6 7 8 9 10 11 12 13 14 15 16 17 18 19 20 21 22 23 24 25 26 27 28 29 30 31 32 33 34 35 36 37 38 39 40 41 42 43 44 45 46 47 48 49 50
000
ASUS43 KFSD 070510
RWRFSD

WEATHER ROUNDUP FOR SE SOUTH DAKOTA/SW MINNESOTA/NW IOWA
NATIONAL WEATHER SERVICE SIOUX FALLS SD
1100 PM CST SAT FEB 06 2016

NOTE: "FAIR" INDICATES FEW OR NO CLOUDS BELOW 12,000 FEET WITH NO
SIGNIFICANT WEATHER AND OR OBSTRUCTIONS TO VISIBILITY.


SDZ038>040-050-052>070-070600-
SOUTHEAST SOUTH DAKOTA

CITY           SKY/WX    TMP DP  RH WIND       PRES   REMARKS
BROOKINGS      PTCLDY    38  29  70 W18       29.75F
CHAMBERLAIN    PTCLDY    38  28  69 W12       29.90S
HURON          PTCLDY    39  29  67 W15       29.80F
MADISON        MOCLDY    37  34  87 W13       29.79R
MITCHELL       CLOUDY    41  30  65 W18       29.85R
SIOUX FALLS    CLOUDY    37  29  72 W8        29.82F
WINNER         FAIR      40  26  57 W17G26    29.94R
YANKTON        CLOUDY    41  28  60 W13       29.87S
$$

MNZ071-072-080-081-089-090-097-098-070600-
SOUTHWEST MINNESOTA

CITY           SKY/WX    TMP DP  RH WIND       PRES   REMARKS
FAIRMONT       CLOUDY    34  25  69 SW15      29.79F WCI  24
JACKSON        CLOUDY    32  27  80 SW14      29.79F WCI  22
LUVERNE        CLOUDY    32  28  86 S6        29.81R WCI  26
MARSHALL       CLOUDY    36  29  75 SW22      29.72F
MONTEVIDEO     CLOUDY    36  34  93 SW6       29.72F
PIPESTONE      PTCLDY    34  25  69 SW10      29.77F WCI  26
REDWOOD FALLS  CLOUDY    36  29  75 SW14      29.74S
TRACY          PTCLDY    35  30  80 SW18G25   29.75S WCI  24
WINDOM         CLOUDY    34  28  80 SW13      29.75F WCI  25
WORTHINGTON    CLOUDY    30  25  80 SW18      29.79F WCI  18
$$

IAZ001>003-012>014-020>022-031-032-NEZ013-014-SDZ071-070600-
NORTHWEST IOWA

CITY           SKY/WX    TMP DP  RH WIND       PRES   REMARKS
CHEROKEE       CLOUDY    32  28  83 SW10      29.87F WCI  24
DENISON        CLOUDY    34  27  75 SW15      29.88S WCI  24
ESTHERVILLE    CLOUDY    31  26  82 SW18      29.81F WCI  19
LE MARS        CLOUDY    30  30 100 SW8       29.88F WCI  23
ORANGE CITY    CLOUDY    30  28  93 SW9       29.84F WCI  22
SHELDON        CLOUDY    30  27  86 S8        29.81F WCI  23
SIOUX CITY     CLOUDY    30  23  75 S3        29.89S
SPENCER        CLOUDY    32  25  75 SW21      29.83F WCI  20
STORM LAKE     CLOUDY    32  28  86 W20       29.87R WCI  20
$$

ABBREVIATIONS USED IN REMARKS
   TC - TEMPERATURE IN CELSIUS
  WCI - WIND CHILL INDEX
   HX - HEAT INDEX
  VSB - VISIBILITY




USA.gov is the U.S. government's official web portal to all federal, state and local government web resources and services.